Location: Santa Giusta
(39.8800°N, 8.6069°E)
Time: 16:19:17
(UTC+00:00)

COSMOS 2428 - Pass Details

Date: 02 February 2023
Orbit: 843 x 858 km, 70.9° (Epoch: 31 March)

Event Time Altitude Azimuth Distance (km) Brightness Sun altitude
Rises 18:36:55 0° 179° (S) 3,389 5.9 -21.6°
Reaches altitude 10° 18:39:30 10° 172° (S) 2,456 5.1 -22.0°
Enters shadow 18:42:55 31° 143° (SE) 1,447 3.6 -22.7°
